Location: Edmonton
(53.5500°N, 113.5000°W)
Time: 18:12:03
(UTC-06:00)

Daily predictions for brighter satellites

Satellite Brightness Start Highest point End
(mag) Time Altitude Azimuth Time Altitude Azimuth Time Altitude Azimuth
Cosmos 371 Rocket 3.8 22:53:57 10° NNW 22:58:42 57° WSW 23:03:23 10° S
CZ-3B DEB 4.2 22:49:15 10° W 23:00:03 85° N 23:13:16 10° E
Cosmos 1500 Rocket 4.0 22:56:30 10° SSE 23:00:46 46° E 23:05:02 10° NNE
Cosmos 841 Rocket 3.7 23:03:00 10° NNW 23:08:16 73° WSW 23:13:28 10° SSE
Lacrosse 5 3.4 23:04:41 10° WNW 23:08:42 24° SW 23:12:42 10° S
Abrixas rocket 4.3 23:06:58 10° WSW 23:08:54 15° SSW 23:10:51 10° S
Cosmos 1763 Rocket 3.9 23:04:45 10° NNW 23:09:48 58° WSW 23:14:45 10° S
Cosmos 2227 Rocket 4.3 23:05:21 10° WSW 23:10:26 33° NW 23:15:33 10° NNE
CARTOSAT-1 3.6 23:07:04 10° SSE 23:11:22 78° ENE 23:15:43 10° NNW
SPOT 5 3.9 23:07:33 10° S 23:12:16 45° W 23:17:15 10° NNW
Cosmos 1943 3.6 23:06:57 10° NW 23:12:31 61° WSW 23:18:05 10° SSE
Cosmos 1486 Rocket 4.3 23:07:31 10° S 23:12:36 50° ESE 23:17:44 10° NE
ARGOS 4.2 23:08:12 10° S 23:13:21 43° W 23:18:31 10° NNW
CZ-4C R/B 4.1 23:14:45 10° ESE 23:16:09 11° ESE 23:17:36 10° E
Cosmos 1328 Rocket 4.4 23:12:14 10° NNW 23:16:26 48° W 23:20:36 10° SSW
Cosmos 1766 Rocket 4.5 23:13:36 10° SSW 23:17:49 50° WNW 23:22:06 10° N
SPOT 1/Viking Rocket 4.3 23:17:16 10° S 23:22:14 49° W 23:27:16 10° NNW
Cosmos 1151 Rocket 3.3 23:18:09 10° NNW 23:22:33 71° W 23:26:54 10° S
Cosmos 1515 Rocket 4.1 23:18:18 10° NNW 23:22:34 56° W 23:26:48 10° S
CZ-4C R/B 4.2 23:22:34 10° SE 23:26:41 45° ENE 23:30:57 10° N
IGS 5A 3.6 23:25:08 10° S 23:29:17 77° WSW 23:33:29 10° NNW
CZ-3A R/B 0.3 23:28:58 10° WSW 23:29:50 18° SSW 23:30:01 18° S
Cosmos 2084 3.7 23:26:03 10° WSW 23:29:54 62° NW 23:33:40 10° NE
Cosmos 2084 Rocket 3.4 23:27:07 10° NW 23:30:55 67° NE 23:34:44 10° ESE
Cosmos 2228 Rocket 4.3 23:27:02 10° NNW 23:31:21 40° W 23:35:37 10° SSW
Landsat 7 4.4 23:27:07 10° S 23:31:47 54° W 23:36:28 10° NNW
H-2A R/B 2.1 23:28:11 10° SSE 23:32:29 84° WSW 23:36:44 10° NNW
Cosmos 1743 Rocket 3.8 23:29:30 10° SSW 23:33:49 70° WNW 23:38:10 10° N
Cosmos 1703 3.4 23:33:25 10° S 23:37:21 63° E 23:41:20 10° NNE
CZ-2C R/B 4.4 23:33:58 10° NE 23:37:24 17° E 23:40:47 10° SE
Cosmos 2233 Rocket 4.3 23:31:40 10° NNW 23:37:51 68° W 23:43:58 10° S
Cosmos 1867 4.2 23:36:32 10° WSW 23:41:58 64° NW 23:47:26 10° NE
CZ-4 R/B 4.1 23:40:56 10° NNE 23:45:44 52° E 23:50:16 11° S
USA 234 3.4 23:39:56 10° ENE 23:46:22 54° SE 23:52:45 10° SW
Terra 2.3 23:42:03 10° S 23:46:43 55° W 23:51:25 10° NNW
SL-19 R/B 3.5 23:51:40 16° SSE 23:53:51 76° ENE 23:56:54 10° NNW
SME Rocket 3.3 23:51:07 13° SSE 23:54:37 85° ENE 23:59:57 10° NNW
